Wind_Speed
31 32 34 35 36 36 37 37 38 38 38 39 40 40 40 41 42 43 44 44 45 45 46 45 45 45 45 45 45 45 45 45 45 44 44 43 42 41 40 40 41 41
31 33 35 36 37 37 38 39 40 40 40 41 41 41 42 42 43 44 44 45 46 46 46 45 45 45 45 45 45 46 46 45 45 43 42 41 39 38 37 37 38 40
31 33 34 36 37 38 40 41 42 42 42 43 43 43 43 44 45 46 47 48 47 46 46 46 46 46 46 46 46 46 46 46 43 41 40 40 38 37 36 36 36 38
30 32 34 36 38 39 41 42 42 43 44 44 45 45 45 46 47 48 48 47 47 47 47 46 46 46 46 46 47 47 45 44 42 40 40 40 38 37 36 36 36 36
30 32 34 36 38 40 41 42 43 44 45 45 45 46 46 47 47 47 47 47 47 47 47 46 46 46 47 47 47 45 43 41 40 40 39 39 39 38 37 36 36 36
29 32 34 36 38 39 40 41 42 43 43 44 45 45 45 45 45 46 46 46 46 46 46 46 46 46 47 47 45 43 41 39 39 39 39 39 39 38 38 38 38 37
30 32 34 35 37 38 39 40 41 42 42 43 44 43 44 44 45 45 45 46 46 46 46 46 47 48 47 45 43 41 39 39 38 38 39 39 39 39 39 39 40 40
34 35 36 37 38 39 40 41 40 41 41 41 41 42 43 44 44 45 45 46 46 47 47 48 49 48 46 44 41 39 38 38 38 38 39 40 40 40 40 41 42 42
36 37 37 38 39 39 39 38 38 37 38 39 40 42 43 44 45 46 47 47 48 49 50 50 50 47 45 42 40 39 38 38 38 39 40 40 41 41 41 42 43 43
38 38 38 39 38 38 36 35 35 36 38 40 42 44 45 46 47 48 49 49 50 51 51 50 47 44 42 40 39 38 38 38 39 39 39 40 41 41 41 42 42 42
40 40 40 40 39 38 36 36 37 39 41 43 45 46 46 48 49 50 51 52 52 52 50 47 44 41 40 38 38 38 38 38 38 38 39 39 40 40 41 41 41 41
40 41 42 41 40 39 38 39 40 42 44 45 46 47 48 50 51 52 54 54 53 50 47 43 40 38 38 37 37 36 36 37 37 38 39 39 39 40 40 40 41 41
40 41 42 42 40 40 41 42 43 44 45 46 47 48 50 52 54 55 55 54 51 47 43 40 38 37 37 37 36 36 35 36 37 38 39 39 40 40 40 41 41 42
39 40 42 42 41 42 44 45 46 46 46 47 49 51 53 55 56 56 54 51 48 45 42 39 38 38 37 36 36 36 36 36 37 38 39 40 41 41 41 41 42 42
42 41 41 42 43 44 46 47 47 48 48 49 51 53 55 56 56 54 51 48 45 44 41 40 39 38 37 37 37 37 37 38 39 40 41 41 42 42 42 42 42 43
45 43 42 43 44 45 47 48 49 50 51 52 54 55 55 55 53 50 48 46 45 43 42 41 40 39 38 39 39 39 40 40 41 41 42 42 42 42 42 43 43 43
46 45 45 45 46 46 48 50 52 53 54 55 56 55 53 51 49 47 46 45 44 44 43 42 41 41 41 41 42 42 42 43 43 43 42 42 42 42 43 43 43 43
47 44 45 47 47 48 50 53 55 56 56 56 55 52 49 47 46 46 46 45 45 45 44 43 43 43 44 44 44 44 43 44 44 43 43 43 43 43 43 43 42 42
46 44 45 47 48 50 54 56 57 57 56 54 52 49 47 46 45 46 46 46 46 46 45 45 46 46 46 46 45 45 44 43 43 43 43 43 43 43 43 41 41 41
46 46 46 48 51 54 57 59 59 57 55 52 49 47 46 46 46 46 47 47 47 47 47 47 48 48 47 46 45 44 42 41 42 43 43 44 44 43 42 41 40 40
46 46 47 51 55 58 59 59 58 55 52 49 47 46 46 47 47 47 47 48 48 49 49 50 49 48 46 45 44 42 41 40 41 42 42 43 43 42 42 42 41 41
47 49 52 56 58 58 58 56 53 51 49 47 46 46 47 47 48 48 48 49 50 50 50 51 50 48 45 44 43 41 40 39 40 41 42 43 43 43 43 44 44 44
52 54 56 57 57 56 53 51 49 47 46 46 46 46 47 48 48 49 49 50 50 50 49 50 48 46 44 42 40 38 37 38 40 41 42 43 44 44 44 44 44 44
53 54 55 54 52 50 48 47 46 46 46 46 46 47 48 48 49 50 49 49 49 48 47 47 45 43 40 38 36 35 37 39 41 43 44 45 45 45 44 44 44 43
51 51 49 48 47 46 46 46 46 46 46 46 47 48 48 49 49 49 48 47 46 44 42 41 41 39 36 35 35 37 39 42 44 45 47 48 47 48 47 47 47 47
47 46 45 45 45 45 46 46 46 46 46 46 47 48 48 48 47 46 45 43 40 38 37 37 37 37 36 36 38 40 42 44 47 49 51 52 53 53 52 52 51 51
Wind_Direction
252 251 251 252 253 256 258 261 264 267 270 273 277 281 284 287 289 291 293 295 296 297 297 298 298 298 298 299 299 299 298 298 298 298 296 293 292 290 288 286 285 284
254 254 255 257 259 261 264 267 269 272 275 278 280 283 285 287 288 290 291 293 294 295 295 296 297 298 298 299 299 298 298 299 299 297 293 290 289 286 284 282 281 282
259 260 262 263 265 267 269 272 274 276 278 280 281 283 284 286 287 289 290 292 293 294 296 297 298 299 300 300 299 299 300 299 297 294 290 289 288 285 282 279 277 277
265 267 269 270 271 272 273 274 276 278 279 279 281 282 284 285 286 288 290 292 294 296 298 299 300 300 300 300 300 300 300 297 294 291 289 288 287 284 282 279 276 273
269 271 272 272 273 273 274 275 276 276 277 278 280 282 283 285 287 289 292 294 296 298 299 300 300 301 301 301 301 300 297 293 290 289 287 286 285 283 281 278 276 273
273 272 272 271 272 272 272 273 273 275 277 279 281 283 285 288 290 292 294 296 297 298 298 299 300 300 301 301 299 296 293 290 288 286 285 284 282 281 279 278 277 275
279 275 273 272 272 273 274 275 277 280 282 283 284 286 288 290 292 294 295 296 297 298 299 300 301 301 301 299 295 292 289 287 285 283 282 282 280 279 278 277 277 277
281 278 277 277 277 279 280 282 284 284 285 285 287 289 290 292 293 295 296 297 298 299 301 302 302 301 299 295 292 289 286 283 282 281 280 280 280 279 278 278 277 277
281 280 280 280 282 283 284 285 285 286 288 289 291 292 293 295 296 297 297 298 299 301 302 302 301 298 295 291 288 285 282 281 280 280 280 280 280 280 279 278 278 277
285 285 285 285 285 285 287 288 290 292 293 293 293 294 296 297 297 297 298 299 299 300 300 299 296 293 290 286 283 281 279 279 280 280 280 280 280 280 279 278 277 277
287 288 289 288 288 289 292 294 295 294 293 294 295 296 297 297 297 297 297 297 298 298 297 294 291 288 284 281 278 278 278 279 280 280 280 279 279 278 278 277 276 276
287 290 290 289 289 291 294 294 293 292 293 294 296 297 297 296 296 296 296 296 296 295 293 290 286 283 279 277 276 278 280 281 281 281 281 280 278 277 276 275 275 274
287 290 290 289 290 291 292 291 290 291 293 294 295 295 295 294 294 294 294 295 294 292 290 287 283 280 277 277 278 280 282 282 282 281 280 278 277 275 275 274 273 273
284 288 288 289 289 289 289 289 291 293 293 294 294 293 293 293 293 293 294 293 291 290 288 285 282 280 278 278 280 281 282 281 280 279 277 276 275 273 273 273 273 272
279 282 286 287 287 287 288 290 292 292 291 290 290 291 291 292 292 292 291 290 288 287 285 283 282 280 279 279 280 281 281 280 278 277 275 274 273 272 273 273 272 271
275 279 283 286 286 286 287 289 290 289 288 287 288 290 291 291 290 290 288 287 286 284 283 282 281 280 280 281 281 281 280 278 276 274 273 271 271 271 272 272 271 269
272 276 280 282 284 284 285 287 288 287 286 288 289 290 289 289 288 287 286 285 284 283 283 283 283 283 284 284 283 282 280 278 276 274 272 271 270 270 270 270 269 266
269 275 277 277 279 281 284 288 288 287 287 289 289 288 287 286 285 284 284 284 284 284 285 285 286 286 286 285 283 281 278 276 275 273 272 270 269 269 269 268 266 263
269 277 278 275 278 283 287 290 289 289 289 289 288 287 286 285 284 284 284 284 285 285 286 286 286 285 284 283 280 278 275 273 272 271 270 269 268 268 268 266 263 261
271 279 278 277 281 285 288 289 289 290 290 288 287 287 286 285 285 284 285 285 285 286 285 285 284 283 282 280 278 276 274 272 270 268 268 268 268 268 266 264 261 260
276 279 279 280 284 285 286 287 288 288 288 287 287 287 286 286 285 285 285 285 285 284 283 282 282 281 279 277 275 274 272 270 269 268 268 267 267 266 266 264 261 259
281 282 283 284 285 285 286 286 286 286 287 287 288 287 287 286 286 285 284 283 283 282 281 281 281 279 278 276 275 274 273 271 269 268 267 267 267 267 267 266 262 258
284 285 285 285 285 285 286 285 285 286 287 288 288 288 286 286 285 284 283 283 282 281 280 280 280 279 278 278 277 276 274 271 270 269 269 269 270 270 269 267 264 259
286 285 285 284 285 285 285 286 287 288 289 289 289 287 286 286 285 285 285 284 283 282 280 280 281 280 280 279 277 275 273 272 272 271 272 272 272 271 270 268 265 261
284 284 284 285 286 287 288 289 290 291 292 291 290 289 289 288 288 287 287 285 284 283 282 282 282 282 281 279 277 275 274 274 274 274 273 273 272 272 270 267 265 262
284 285 286 288 289 290 291 292 293 293 293 292 291 290 290 289 288 287 286 284 284 284 284 284 284 284 282 279 277 277 276 276 275 274 274 274 274 273 271 269 266 263
Height
3127 3128 3128 3128 3129 3129 3129 3129 3128 3128 3128 3128 3127 3126 3125 3124 3123 3122 3121 3120 3119 3117 3116 3115 3114 3113 3111 3110 3108 3107 3105 3104 3103 3103 3102 3101 3101 3100 3100 3098 3097 3096
3124 3125 3125 3125 3126 3126 3126 3125 3125 3125 3125 3124 3123 3122 3121 3120 3119 3117 3116 3115 3114 3113 3112 3110 3109 3107 3106 3104 3103 3101 3100 3099 3098 3097 3095 3095 3095 3095 3095 3094 3093 3091
3121 3122 3122 3122 3123 3122 3122 3122 3121 3121 3120 3119 3118 3117 3116 3115 3113 3112 3111 3109 3108 3107 3106 3104 3102 3101 3100 3098 3097 3095 3094 3093 3092 3091 3089 3089 3089 3088 3089 3089 3089 3088
3118 3119 3119 3119 3119 3119 3118 3117 3117 3116 3115 3114 3113 3111 3110 3109 3108 3106 3105 3104 3102 3101 3099 3097 3096 3095 3094 3092 3091 3090 3088 3087 3086 3085 3084 3084 3083 3083 3082 3082 3083 3083
3114 3115 3115 3114 3114 3114 3113 3112 3112 3111 3109 3108 3106 3105 3104 3102 3101 3100 3098 3097 3095 3094 3093 3091 3090 3089 3088 3086 3085 3084 3083 3082 3081 3080 3079 3079 3078 3078 3077 3077 3077 3077
3110 3110 3110 3109 3109 3108 3107 3106 3105 3104 3102 3101 3100 3098 3097 3096 3094 3093 3092 3091 3090 3088 3087 3086 3084 3083 3082 3081 3080 3079 3077 3076 3076 3075 3074 3073 3073 3073 3072 3071 3071 3071
3105 3105 3104 3104 3103 3102 3100 3099 3098 3097 3096 3094 3093 3092 3091 3089 3088 3087 3086 3085 3084 3082 3081 3080 3078 3077 3076 3075 3074 3073 3072 3071 3070 3069 3068 3068 3068 3067 3067 3066 3065 3065
3100 3099 3098 3097 3096 3095 3094 3093 3092 3091 3090 3088 3087 3086 3085 3084 3082 3081 3080 3079 3077 3076 3075 3073 3072 3071 3070 3069 3068 3067 3066 3065 3065 3064 3063 3062 3062 3061 3061 3061 3060 3059
3094 3094 3093 3092 3091 3090 3089 3088 3087 3085 3084 3083 3082 3080 3079 3078 3076 3075 3074 3072 3071 3070 3069 3067 3066 3065 3064 3062 3061 3061 3060 3059 3059 3058 3057 3056 3056 3055 3055 3054 3054 3053
3089 3088 3087 3086 3085 3084 3083 3082 3081 3079 3078 3077 3075 3074 3073 3072 3070 3069 3068 3066 3065 3064 3063 3062 3060 3059 3058 3056 3056 3055 3054 3054 3053 3052 3051 3051 3050 3049 3049 3048 3048 3048
3084 3083 3082 3080 3079 3078 3077 3076 3075 3074 3072 3071 3069 3068 3067 3066 3064 3063 3062 3061 3060 3059 3057 3056 3055 3053 3052 3051 3050 3049 3049 3048 3047 3046 3046 3045 3044 3044 3043 3043 3042 3042
3079 3078 3076 3075 3074 3073 3072 3071 3070 3069 3067 3066 3064 3063 3062 3060 3059 3058 3056 3055 3054 3053 3052 3050 3049 3048 3046 3046 3045 3044 3043 3042 3041 3040 3039 3039 3038 3038 3037 3037 3036 3036
3073 3071 3070 3069 3069 3068 3067 3066 3065 3064 3062 3061 3060 3058 3057 3055 3053 3052 3051 3049 3048 3047 3046 3045 3043 3042 3041 3040 3039 3038 3037 3036 3035 3034 3033 3033 3032 3032 3031 3031 3030 3030
3067 3066 3065 3064 3064 3063 3062 3061 3059 3058 3057 3056 3054 3052 3051 3049 3047 3045 3044 3042 3041 3040 3039 3038 3037 3035 3034 3033 3033 3032 3031 3030 3029 3028 3027 3027 3026 3025 3025 3025 3024 3024
3062 3061 3061 3060 3060 3058 3057 3056 3055 3053 3052 3050 3048 3047 3045 3042 3040 3039 3037 3036 3035 3033 3032 3031 3030 3029 3028 3028 3027 3026 3025 3024 3023 3022 3021 3021 3020 3019 3019 3018 3018 3018
3055 3055 3055 3054 3054 3053 3052 3051 3050 3048 3046 3045 3043 3041 3038 3036 3034 3032 3031 3029 3028 3027 3026 3024 3024 3023 3022 3022 3021 3019 3018 3017 3017 3016 3015 3015 3014 3013 3012 3012 3011 3011
3048 3048 3048 3048 3047 3047 3046 3045 3044 3042 3040 3038 3036 3034 3032 3029 3027 3025 3024 3022 3021 3020 3019 3017 3017 3016 3015 3014 3013 3012 3011 3011 3010 3009 3009 3008 3007 3007 3006 3005 3005 3005
3041 3042 3042 3041 3041 3041 3040 3038 3037 3035 3033 3031 3029 3026 3024 3022 3020 3018 3016 3015 3013 3012 3011 3010 3009 3008 3007 3007 3006 3005 3004 3004 3003 3002 3002 3001 3001 3000 2999 2999 2998 2999
3036 3036 3036 3036 3035 3034 3033 3031 3029 3027 3025 3022 3020 3018 3016 3014 3012 3010 3009 3007 3006 3005 3004 3002 3001 3000 2999 2999 2998 2998 2997 2997 2996 2995 2994 2993 2993 2992 2992 2992 2992 2992
3033 3032 3031 3031 3029 3028 3025 3022 3020 3018 3016 3014 3012 3010 3008 3006 3005 3003 3001 3000 2998 2997 2996 2994 2993 2992 2992 2991 2990 2990 2990 2989 2989 2988 2987 2986 2986 2985 2985 2985 2985 2985
3028 3026 3026 3024 3022 3020 3018 3015 3013 3011 3009 3007 3004 3003 3001 2999 2997 2996 2994 2993 2991 2989 2987 2986 2985 2984 2984 2983 2983 2983 2983 2982 2982 2981 2980 2979 2979 2979 2978 2978 2978 2978
3022 3020 3019 3017 3015 3013 3010 3008 3006 3004 3002 2999 2998 2996 2994 2992 2990 2988 2986 2984 2982 2981 2979 2977 2977 2977 2976 2976 2976 2976 2976 2976 2975 2974 2973 2972 2972 2972 2972 2972 2972 2972
3015 3013 3011 3009 3007 3005 3003 3001 2999 2997 2995 2993 2991 2989 2986 2984 2982 2980 2978 2976 2974 2972 2971 2969 2970 2970 2970 2970 2970 2970 2970 2969 2968 2967 2965 2965 2964 2964 2964 2964 2965 2965
3008 3005 3003 3001 3000 2998 2996 2994 2992 2990 2988 2986 2984 2981 2978 2976 2974 2972 2970 2968 2966 2965 2964 2963 2963 2963 2964 2964 2965 2965 2964 2962 2961 2959 2958 2957 2957 2957 2957 2957 2957 2958
3001 2998 2996 2995 2993 2991 2989 2987 2985 2983 2981 2978 2975 2972 2970 2967 2965 2963 2961 2960 2959 2958 2958 2957 2957 2957 2958 2959 2958 2958 2957 2955 2954 2952 2950 2949 2949 2948 2948 2948 2949 2950
2994 2992 2990 2988 2986 2984 2982 2980 2978 2976 2973 2970 2967 2964 2962 2959 2957 2955 2954 2953 2953 2953 2952 2952 2951 2952 2952 2952 2952 2951 2950 2948 2946 2943 2941 2939 2939 2938 2937 2937 2938 2939